When you browse on this site, cookies collect data to enhance your experience and personalize the content and advertising you see.
Visit our Privacy Policy to learn more. By continuing to use the site, you agree to this use of cookies and data.
  • en Suisse
  • Liste des pays
  • À 7 jours
  • Température de l'eau
  • Carte satellitaire
  • Carte météo
  • Widgets météo
  • user-avatar
    Se connecter

    Météo par heure à Zibarovka

    Ce jour, 18 Juin, Mardi

    Heure Température Précipitation Vent Pression Humidité
    00:00 +18°C° 0 mm 1 m/s 744 mmHg 82%
    01:00 +18°C° 0 mm 1 m/s 744 mmHg 84%
    02:00 +18°C° 0 mm 1 m/s 744 mmHg 86%
    03:00 +18°C° 0 mm 1 m/s 744 mmHg 84%
    04:00 +17°C° 0 mm 2 m/s 744 mmHg 84%
    05:00 +18°C° 0 mm 2 m/s 744 mmHg 85%
    06:00 +18°C° 0 mm 2 m/s 743 mmHg 85%
    07:00 +19°C° 0.1 mm 2 m/s 743 mmHg 81%
    08:00 +21°C° 0.1 mm 2 m/s 743 mmHg 77%
    09:00 +23°C° 0.1 mm 2 m/s 743 mmHg 73%
    10:00 +24°C° 0.9 mm 3 m/s 743 mmHg 72%
    11:00 +25°C° 0.9 mm 3 m/s 743 mmHg 71%
    12:00 +26°C° 0.9 mm 4 m/s 743 mmHg 70%
    13:00 +26°C° 1.6 mm 3 m/s 743 mmHg 71%
    14:00 +26°C° 1.6 mm 3 m/s 743 mmHg 72%
    15:00 +26°C° 1.6 mm 3 m/s 742 mmHg 73%
    16:00 +26°C° 0.8 mm 3 m/s 742 mmHg 75%
    17:00 +25°C° 0.8 mm 3 m/s 742 mmHg 77%
    18:00 +25°C° 0.8 mm 3 m/s 742 mmHg 78%
    19:00 +24°C° 0.1 mm 3 m/s 742 mmHg 82%
    20:00 +21°C° 0.1 mm 3 m/s 742 mmHg 87%
    21:00 +20°C° 0.1 mm 2 m/s 742 mmHg 91%
    22:00 +19°C° 0 mm 2 m/s 742 mmHg 90%
    23:00 +18°C° 0 mm 2 m/s 743 mmHg 89%

    Demain, 19 Juin, Mercredi

    Heure Température Précipitation Vent Pression Humidité
    00:00 +18°C° 0 mm 2 m/s 743 mmHg 89%
    01:00 +17°C° 0 mm 3 m/s 743 mmHg 89%
    02:00 +17°C° 0 mm 3 m/s 743 mmHg 90%
    03:00 +16°C° 0 mm 3 m/s 743 mmHg 90%
    04:00 +17°C° 0 mm 3 m/s 744 mmHg 90%
    05:00 +17°C° 0 mm 3 m/s 744 mmHg 89%
    06:00 +17°C° 0 mm 3 m/s 744 mmHg 89%
    07:00 +19°C° 0 mm 3 m/s 744 mmHg 84%
    08:00 +20°C° 0 mm 3 m/s 744 mmHg 80%
    09:00 +22°C° 0 mm 3 m/s 745 mmHg 75%
    10:00 +24°C° 0.1 mm 3 m/s 745 mmHg 71%
    11:00 +25°C° 0.1 mm 3 m/s 745 mmHg 66%
    12:00 +26°C° 0.1 mm 3 m/s 745 mmHg 62%
    13:00 +26°C° 0 mm 3 m/s 745 mmHg 61%
    14:00 +26°C° 0 mm 4 m/s 745 mmHg 59%
    15:00 +26°C° 0 mm 4 m/s 745 mmHg 58%
    16:00 +26°C° 0 mm 3 m/s 745 mmHg 62%
    17:00 +25°C° 0 mm 3 m/s 745 mmHg 65%
    18:00 +25°C° 0 mm 2 m/s 745 mmHg 69%
    19:00 +23°C° 0 mm 2 m/s 745 mmHg 73%
    20:00 +20°C° 0 mm 2 m/s 745 mmHg 76%
    21:00 +19°C° 0 mm 2 m/s 745 mmHg 79%
    22:00 +19°C° 0 mm 1 m/s 745 mmHg 78%
    23:00 +19°C° 0 mm 1 m/s 745 mmHg 77%

    Après-demain, 20 Juin, Jeudi

    Heure Température Précipitation Vent Pression Humidité
    00:00 +18°C° 0 mm 1 m/s 746 mmHg 76%
    01:00 +18°C° 0 mm 1 m/s 746 mmHg 77%
    02:00 +16°C° 0 mm 1 m/s 746 mmHg 78%
    03:00 +16°C° 0 mm 2 m/s 746 mmHg 79%
    04:00 +18°C° 0 mm 1 m/s 746 mmHg 80%
    05:00 +18°C° 0 mm 1 m/s 746 mmHg 82%
    06:00 +19°C° 0 mm 1 m/s 746 mmHg 83%
    07:00 +21°C° 0 mm 1 m/s 747 mmHg 78%
    08:00 +22°C° 0 mm 1 m/s 747 mmHg 72%
    09:00 +24°C° 0 mm 1 m/s 747 mmHg 67%
    10:00 +25°C° 0 mm 1 m/s 747 mmHg 63%
    11:00 +26°C° 0 mm 1 m/s 747 mmHg 58%
    12:00 +27°C° 0 mm 2 m/s 747 mmHg 53%
    13:00 +27°C° 0 mm 1 m/s 747 mmHg 52%
    14:00 +27°C° 0 mm 1 m/s 747 mmHg 51%
    15:00 +27°C° 0 mm 1 m/s 746 mmHg 50%
    16:00 +27°C° 0 mm 1 m/s 746 mmHg 53%
    17:00 +27°C° 0 mm 1 m/s 746 mmHg 57%
    18:00 +27°C° 0 mm 1 m/s 746 mmHg 60%
    19:00 +25°C° 0 mm 1 m/s 746 mmHg 64%
    20:00 +23°C° 0 mm 1 m/s 746 mmHg 67%
    21:00 +21°C° 0 mm 1 m/s 746 mmHg 71%
    22:00 +20°C° 0 mm 1 m/s 746 mmHg 72%
    23:00 +20°C° 0 mm 1 m/s 746 mmHg 73%

    21 Juin, Vendredi

    Heure Température Précipitation Vent Pression Humidité
    00:00 +19°C° 0 mm 1 m/s 747 mmHg 74%
    01:00 +19°C° 0 mm 1 m/s 747 mmHg 75%
    02:00 +18°C° 0 mm 1 m/s 747 mmHg 76%
    03:00 +18°C° 0 mm 1 m/s 747 mmHg 77%
    04:00 +17°C° 0 mm 0 m/s 747 mmHg 77%
    05:00 +18°C° 0 mm 0 m/s 747 mmHg 78%
    06:00 +18°C° 0 mm 0 m/s 747 mmHg 79%
    07:00 +22°C° 0 mm 1 m/s 747 mmHg 74%
    08:00 +23°C° 0 mm 1 m/s 747 mmHg 70%
    09:00 +24°C° 0 mm 1 m/s 748 mmHg 65%
    10:00 +25°C° 0 mm 1 m/s 748 mmHg 62%
    11:00 +26°C° 0 mm 1 m/s 748 mmHg 58%
    12:00 +27°C° 0 mm 2 m/s 748 mmHg 54%
    13:00 +27°C° 0 mm 1 m/s 748 mmHg 53%
    14:00 +27°C° 0 mm 1 m/s 747 mmHg 53%
    15:00 +28°C° 0 mm 1 m/s 747 mmHg 53%
    16:00 +28°C° 0 mm 1 m/s 747 mmHg 55%
    17:00 +28°C° 0 mm 1 m/s 747 mmHg 58%
    18:00 +28°C° 0 mm 1 m/s 747 mmHg 60%
    19:00 +26°C° 0 mm 1 m/s 747 mmHg 63%
    20:00 +24°C° 0 mm 1 m/s 747 mmHg 66%
    21:00 +22°C° 0 mm 1 m/s 747 mmHg 68%
    22:00 +21°C° 0 mm 1 m/s 747 mmHg 70%
    23:00 +21°C° 0 mm 1 m/s 747 mmHg 71%

    22 Juin, Samedi

    Heure Température Précipitation Vent Pression Humidité
    00:00 +20°C° 0 mm 1 m/s 747 mmHg 73%
    01:00 +20°C° 0 mm 1 m/s 747 mmHg 74%
    02:00 +20°C° 0 mm 1 m/s 747 mmHg 75%
    03:00 +19°C° 0 mm 1 m/s 747 mmHg 76%
    04:00 +19°C° 0 mm 2 m/s 747 mmHg 78%
    05:00 +19°C° 0 mm 2 m/s 747 mmHg 80%
    06:00 +20°C° 0 mm 2 m/s 747 mmHg 82%
    07:00 +21°C° 0 mm 2 m/s 747 mmHg 77%
    08:00 +24°C° 0 mm 2 m/s 747 mmHg 73%
    09:00 +26°C° 0 mm 2 m/s 748 mmHg 68%
    10:00 +27°C° 0 mm 3 m/s 747 mmHg 64%
    11:00 +27°C° 0 mm 3 m/s 747 mmHg 59%
    12:00 +28°C° 0 mm 3 m/s 747 mmHg 55%
    13:00 +28°C° 0 mm 3 m/s 747 mmHg 56%
    14:00 +28°C° 0 mm 4 m/s 747 mmHg 56%
    15:00 +28°C° 0 mm 4 m/s 747 mmHg 57%
    16:00 +28°C° 0 mm 3 m/s 747 mmHg 61%
    17:00 +28°C° 0 mm 3 m/s 746 mmHg 65%
    18:00 +28°C° 0 mm 2 m/s 746 mmHg 68%
    19:00 +26°C° 0 mm 2 m/s 746 mmHg 71%
    20:00 +25°C° 0 mm 2 m/s 746 mmHg 74%
    21:00 +23°C° 0 mm 2 m/s 746 mmHg 77%
    22:00 +21°C° 0 mm 2 m/s 747 mmHg 78%
    23:00 +21°C° 0 mm 2 m/s 747 mmHg 78%

    23 Juin, Dimanche

    Heure Température Précipitation Vent Pression Humidité
    00:00 +20°C° 0 mm 2 m/s 747 mmHg 79%
    01:00 +20°C° 0 mm 2 m/s 747 mmHg 80%
    02:00 +20°C° 0 mm 2 m/s 747 mmHg 82%
    03:00 +19°C° 0 mm 2 m/s 747 mmHg 83%
    04:00 +20°C° 0 mm 2 m/s 747 mmHg 84%
    05:00 +20°C° 0 mm 2 m/s 747 mmHg 84%
    06:00 +21°C° 0 mm 2 m/s 747 mmHg 85%
    07:00 +23°C° 0 mm 2 m/s 747 mmHg 81%
    08:00 +25°C° 0 mm 3 m/s 747 mmHg 76%
    09:00 +26°C° 0 mm 3 m/s 747 mmHg 72%
    10:00 +27°C° 0.1 mm 3 m/s 747 mmHg 69%
    11:00 +28°C° 0.1 mm 3 m/s 747 mmHg 65%
    12:00 +29°C° 0.1 mm 3 m/s 747 mmHg 61%
    13:00 +29°C° 0.1 mm 3 m/s 747 mmHg 60%
    14:00 +30°C° 0.1 mm 4 m/s 747 mmHg 59%
    15:00 +30°C° 0.1 mm 4 m/s 747 mmHg 58%
    16:00 +30°C° 0.2 mm 3 m/s 747 mmHg 62%
    17:00 +29°C° 0.2 mm 3 m/s 746 mmHg 67%
    18:00 +29°C° 0.2 mm 2 m/s 746 mmHg 71%
    19:00 +27°C° 0.1 mm 2 m/s 746 mmHg 74%
    20:00 +25°C° 0.1 mm 2 m/s 746 mmHg 76%
    21:00 +24°C° 0.1 mm 2 m/s 746 mmHg 78%
    22:00 +23°C° 0 mm 2 m/s 746 mmHg 80%
    23:00 +23°C° 0 mm 2 m/s 746 mmHg 82%
    Voir plus